Location: PSU-Greenbush Astrophysical Observatory
(37.5140°N, 94.9880°W)
Time: 12:25:08
(UTC-06:00)

Altair - Pass Details

Date: 30 January 2020
Orbit: 1502 x 1682 km, 47.2° (Epoch: 25 February)

Event Time Altitude Azimuth Distance (km) Brightness Sun altitude
Rises 13:51:26 0° 302° (WNW) 4,938 10.1 31.9°
Reaches altitude 10° 13:54:37 10° 300° (WNW) 3,946 9.7 31.6°
Maximum altitude 14:04:42 71° 219° (SW) 1,741 8.8 30.8°
Drops below altitude 10° 14:14:30 10° 138° (SE) 3,845 9.9 29.9°
Sets 14:17:35 0° 136° (SE) 4,806 10.3 29.6°
